STARLINK-35254

Last updated on Mon Oct 20 2025 00:02:05 GMT+0000 (Coordinated Universal Time)

1 65674U 25211Y 25292.11016473 .00091606 00000+0 16644-2 0 9996 2 65674 97.6031 334.2811 0001216 100.2753 259.8634 15.49223557 5720
UTC large
Height (km)
Speed (km/s)
/
Latitude / Longitude
Inclination (degrees)
Orbital Period (minutes)
Azimuth
Elevation
Range (km)
Doppler Factor

Next 0 passes for location: London (51.5072 / 0.1276)

Sorry there are no passes over London.